COSMOS 2112

Satellite information

Favourite Embed

Satellite Type and Status

PAYLOADIN ORBIT

Key statistics

Satellite COSMOS 2112 at a glance.

Uptime

12688

Days in orbit

Revolutions

≈ 14.3

Per day

Orbit

LEO

Low Earth Orbit

Inclination

74.0

Latest

Satellite identification and parameters

Extended collection of information and parameters for COSMOS 2112.

Object identification

Identified? True

Debris? False

Object name: COSMOS 2112

International designator: 1990-111A

Object number (NORAD): 21014

Object ID (CCSDS): 21014

Country: COMMONWEALTH OF INDEPENDENT STATES (CIS)

Current information (Y/N): Y

RCS size: LARGE

Orbital parameters

Period: 100.405 minutes

Inclination: 74.0458 deg

SMA: 7155.879 km

Apoapsis: 797.266 km

Periapsis: 758.222 km

RAAN: 110.0718 deg

Eccentricy: 0.00272811

Argument of periapsis: 8.249 deg

Mean anomaly: 351.9105 deg

Mean motion: 14.34195237 rev/day

Mean motion (dot): 0.0000028 rev/day2

B* drag term: 0.00010878831 1/REarth

Two-line elements (TLE)

Creation date: Sept. 3, 2025, 10:15 a.m.

Reference frame: TEME

Reference center: EARTH

Epoch: Sept. 3, 2025, 1:52 a.m. UTC

TLE line 0: 0 COSMOS 2112

TLE line 1: 1 21014U 90111A 25246.07789001 .00000280 00000-0 10879-3 0 9999

TLE line 2: 2 21014 74.0458 110.0718 0027281 8.2490 351.9105 14.34195237816119

Live tracking on map

Real-time ground track for satellite COSMOS 2112.

In-orbit conjunctions

A list of the most updated potential collisions computed for object COSMOS 2112.

Target Orbit TCA Probability of collision Miss distance Type
DMSP 5D-2 F14 DEB SSO 2025-08-27 16:32:57 0.0001453157 401.0 (m) DEBRIS
CZ-6A DEB LEO 2025-07-28 01:25:01 0.0001085626 637.0 (m) DEBRIS
FENGYUN 1C DEB SSO 2025-05-27 04:23:36 0.0001408098 715.0 (m) DEBRIS
FENGYUN 1C DEB SSO 2025-02-18 15:47:10 0.0001280884 967.0 (m) DEBRIS
NOAA 16 DEB SSO 2024-11-15 17:16:24 0.0001054608 271.0 (m) DEBRIS

Associated space launch

Military communications satellite

COSMOS 2112 was lifted into orbit during the mission ‘Kosmos-3M | Strela-2M 48’, on board a Kosmos-3M space rocket.

The launch took place on Dec. 10, 1990, 7:54 a.m. from 133/3 (133L).

For more information about the launch, click the button.

Launch to space Kosmos-3M | Strela-2M 48
Kosmos-3M | Strela-2M 48

Agency: N/A

Status: Launch Successful

Launch date: Dec. 10, 1990, 7:54 a.m. UTC

Rocket: Kosmos-3M

Launch pad: 133/3 (133L)

Location: Plesetsk Cosmodrome, Russian Federation

...

Latest news about this satellite

There are no fresh news available about this satellite. Check back as we update our databases every day.


Newsletter sign-up

Weekly statistics, charts and insights to help you stay on top of the space industry.